Weather History for Bad Axe, MI

Change the Weather History Date:

Tuesday, February 19, 2013

  Actual Average (KP58) Record (KP58)
Temperature  
Mean Temperature 28 °F -  
Max Temperature 39 °F 30 °F 46 °F (1997)
Min Temperature 18 °F 19 °F 3 °F (2006)
Degree Days  
Heating Degree Days 36    
Moisture  
Dew Point 25 °F    
Average Humidity 82    
Maximum Humidity 94    
Minimum Humidity 66    
Precipitation  
Precipitation 0.00 in - - ()
Sea Level Pressure  
Sea Level Pressure 29.53 in    
Wind  
Wind Speed 18 mph (SW)    
Max Wind Speed 29 mph    
Max Gust Speed 41 mph    
Visibility 8 miles    
Events Rain , Snow    
Averages and records for this station are not official NWS values.
T = Trace of Precipitation, MM = Missing Value Source: NWS Daily Summary

Daily Weather History Graph

Daily Weather History Graph

Search for Another Location

Airport:

Trip Planner

Search our weather history database for the weather conditions in past years. The results will help you decide how hot, cold, wet, or windy it might be!

Date:

Astronomy

Feb. 19, 2013 Rise Set
Actual Time 7:24 AM EST 6:07 PM EST
Civil Twilight 6:55 AM EST 6:37 PM EST
Nautical Twilight 6:21 AM EST 7:10 PM EST
Astronomical Twilight 5:48 AM EST 7:43 PM EST
Moon 12:32 PM EST (2/19) 3:01 AM EST (2/19)
Length of Visible Light 11h 41m
Length of Day
10h 43m
Waxing Gibbous, 67% of the Moon is Illuminated
Feb 19
Waxing Gibbous
Feb 25
Full
Mar 4
Last Quarter
Mar 11
New
Mar 19
First Quarter

Hourly Weather History & Observations

Time (EST) Temp. Windchill Dew Point Humidity Pressure Visibility Wind Dir Wind Speed Gust Speed Precip Events Conditions
12:13 AM 39.6 °F 33.0 °F 31.8 °F 74% 29.56 in 10.0 mi SSE 10.4 mph - N/A Rain Light Rain
12:34 AM 39.7 °F 33.2 °F 32.0 °F 74% 29.54 in 10.0 mi SSE 10.4 mph 16.1 mph N/A Rain Light Rain
12:54 AM 39.2 °F 32.0 °F 32.0 °F 75% 29.53 in 10.0 mi SSE 11.5 mph 18.4 mph N/A   Overcast
1:14 AM 39.4 °F 31.8 °F 32.0 °F 75% 29.52 in 10.0 mi SSE 12.7 mph - N/A   Overcast
1:34 AM 39.4 °F 30.4 °F 32.0 °F 75% 29.51 in 10.0 mi South 17.3 mph 20.7 mph N/A   Light Drizzle
1:53 AM 38.7 °F 30.5 °F 32.5 °F 79% 29.50 in 10.0 mi SSE 13.8 mph 20.7 mph N/A Rain Light Rain
2:14 AM 38.3 °F 30.1 °F 33.1 °F 81% 29.48 in 10.0 mi SSE 13.8 mph - N/A Rain Light Rain
2:34 AM 38.5 °F 30.7 °F 33.3 °F 81% 29.46 in 10.0 mi SSE 12.7 mph 18.4 mph N/A   Overcast
2:53 AM 39.0 °F 30.3 °F 33.4 °F 80% 29.44 in 10.0 mi SSE 16.1 mph 23.0 mph N/A   Overcast
3:14 AM 39.0 °F 29.6 °F 33.8 °F 82% 29.42 in 10.0 mi South 18.4 mph 24.2 mph N/A Rain Light Rain
3:34 AM 38.5 °F 28.9 °F 34.7 °F 86% 29.40 in 7.0 mi SSE 18.4 mph 24.2 mph N/A Rain Rain
3:53 AM 38.1 °F 27.6 °F 35.2 °F 89% 29.39 in 5.0 mi SSE 21.9 mph 26.5 mph N/A Rain Light Rain
4:14 AM 37.8 °F 27.7 °F 35.6 °F 92% 29.37 in 7.0 mi South 19.6 mph 29.9 mph N/A Rain Light Rain
4:34 AM 37.8 °F 27.4 °F 35.6 °F 92% 29.37 in 7.0 mi South 20.7 mph 27.6 mph N/A Rain Light Rain
4:53 AM 37.9 °F 27.9 °F 36.0 °F 93% 29.35 in 7.0 mi South 19.6 mph 27.6 mph N/A Rain Light Rain
5:14 AM 37.8 °F 28.0 °F 35.8 °F 93% 29.34 in 10.0 mi South 18.4 mph 26.5 mph N/A Rain Light Rain
5:34 AM 37.8 °F 27.1 °F 36.0 °F 93% 29.33 in 7.0 mi South 21.9 mph 29.9 mph N/A Rain Light Rain
5:53 AM 37.8 °F 27.4 °F 36.1 °F 94% 29.33 in 7.0 mi South 20.7 mph 27.6 mph N/A Rain Rain
6:14 AM 38.1 °F 28.1 °F 36.5 °F 94% 29.35 in 5.0 mi SW 19.6 mph 32.2 mph N/A Rain Light Rain
6:34 AM 36.5 °F 24.9 °F 34.3 °F 92% 29.37 in 10.0 mi WSW 24.2 mph 34.5 mph N/A   Light Drizzle
6:54 AM 35.6 °F 24.0 °F 32.9 °F 90% 29.37 in 10.0 mi WSW 23.0 mph 34.5 mph N/A   Overcast
7:14 AM 35.1 °F 23.5 °F 32.0 °F 89% 29.38 in 10.0 mi WSW 21.9 mph 31.1 mph N/A   Overcast
7:34 AM 34.7 °F 24.7 °F 32.0 °F 90% 29.39 in 10.0 mi WSW 16.1 mph 28.8 mph N/A   Overcast
7:54 AM 34.2 °F 23.3 °F 32.0 °F 92% 29.41 in 10.0 mi WSW 18.4 mph 32.2 mph N/A   Overcast
8:14 AM 34.2 °F 22.3 °F 32.0 °F 92% 29.42 in 10.0 mi WSW 21.9 mph 27.6 mph N/A   Overcast
8:34 AM 33.8 °F 23.2 °F 31.6 °F 92% 29.42 in 10.0 mi WSW 17.3 mph 27.6 mph N/A   Overcast
8:54 AM 33.3 °F 21.2 °F 30.2 °F 89% 29.43 in 10.0 mi WSW 21.9 mph 35.7 mph N/A   Overcast
9:14 AM 32.9 °F 20.7 °F 29.8 °F 88% 29.44 in 10.0 mi WSW 21.9 mph 34.5 mph N/A   Overcast
9:34 AM 32.4 °F 20.9 °F 28.4 °F 85% 29.45 in 10.0 mi WSW 18.4 mph 34.5 mph N/A   Overcast
9:54 AM 32.0 °F 18.9 °F 28.4 °F 87% 29.45 in 10.0 mi WSW 24.2 mph 33.4 mph N/A   Overcast
10:14 AM 31.1 °F 17.4 °F 27.7 °F 87% 29.46 in 10.0 mi SW 25.3 mph 33.4 mph N/A   Overcast
10:34 AM 30.4 °F 16.7 °F 26.8 °F 86% 29.47 in 10.0 mi SW 24.2 mph 35.7 mph N/A   Overcast
10:54 AM 29.8 °F 17.7 °F 26.1 °F 86% 29.48 in 10.0 mi SW 18.4 mph 41.4 mph N/A   Overcast
11:14 AM 29.8 °F 17.0 °F 25.5 °F 84% 29.49 in 10.0 mi SW 20.7 mph 36.8 mph N/A   Overcast
11:34 AM 29.5 °F 15.5 °F 24.1 °F 80% 29.49 in 10.0 mi WSW 24.2 mph 36.8 mph N/A   Overcast
11:54 AM 28.9 °F 14.8 °F 23.2 °F 79% 29.50 in 10.0 mi SW 24.2 mph 33.4 mph N/A   Overcast
12:14 PM 28.9 °F 14.8 °F 22.6 °F 77% 29.50 in 10.0 mi SW 24.2 mph 34.5 mph N/A   Overcast
12:34 PM 28.4 °F 15.1 °F 22.3 °F 78% 29.50 in 10.0 mi SW 20.7 mph 34.5 mph N/A   Overcast
12:54 PM 28.0 °F 13.3 °F 21.6 °F 77% 29.50 in 10.0 mi SW 25.3 mph 32.2 mph N/A Snow Light Snow
1:14 PM 28.0 °F 12.5 °F 21.2 °F 76% 29.50 in 10.0 mi WSW 28.8 mph 39.1 mph N/A   Overcast
1:35 PM 27.7 °F 13.5 °F 21.0 °F 76% 29.50 in 10.0 mi WSW 23.0 mph 33.4 mph N/A Snow Light Snow
1:54 PM 27.1 °F 12.1 °F 21.0 °F 78% 29.52 in 10.0 mi WSW 25.3 mph 32.2 mph N/A   Overcast
2:14 PM 27.0 °F 13.5 °F 21.0 °F 78% 29.52 in 10.0 mi SW 19.6 mph 29.9 mph N/A   Overcast
2:34 PM 26.6 °F 11.7 °F 20.7 °F 78% 29.53 in 10.0 mi SW 24.2 mph 31.1 mph N/A Snow Light Snow
2:54 PM 27.0 °F 13.2 °F 21.2 °F 79% 29.53 in 10.0 mi SW 20.7 mph 29.9 mph N/A   Overcast
3:14 PM 27.1 °F 12.4 °F 21.2 °F 78% 29.53 in 10.0 mi WSW 24.2 mph 29.9 mph N/A   Overcast
3:34 PM 27.3 °F 13.6 °F 21.7 °F 80% 29.54 in 5.0 mi WSW 20.7 mph 31.1 mph N/A Snow Light Snow
3:54 PM 27.3 °F 12.7 °F 21.9 °F 80% 29.55 in 7.0 mi WSW 24.2 mph 32.2 mph N/A Snow Light Snow
4:14 PM 27.3 °F 14.8 °F 22.6 °F 83% 29.56 in 2.0 mi WSW 17.3 mph 28.8 mph N/A Snow Light Snow
4:34 PM 27.0 °F 12.5 °F 23.0 °F 85% 29.58 in 0.8 mi West 23.0 mph 34.5 mph N/A Snow Light Snow
4:54 PM 26.4 °F 13.6 °F 23.2 °F 88% 29.59 in 0.5 mi West 17.3 mph 26.5 mph N/A Snow Light Snow
5:14 PM 25.5 °F 12.0 °F 21.9 °F 86% 29.61 in 1.5 mi West 18.4 mph 32.2 mph N/A Snow Light Snow
5:34 PM 25.0 °F 10.6 °F 21.2 °F 86% 29.63 in 1.0 mi West 20.7 mph 29.9 mph N/A Snow Light Snow
5:54 PM 24.8 °F 10.3 °F 19.4 °F 80% 29.64 in 2.0 mi West 20.7 mph 33.4 mph N/A Snow Light Snow
6:14 PM 23.9 °F 8.4 °F 18.5 °F 80% 29.66 in 5.0 mi West 23.0 mph 33.4 mph N/A   Haze
7:34 PM 21.9 °F 7.3 °F 18.7 °F 87% 29.71 in 2.5 mi West 18.4 mph 26.5 mph N/A Snow Light Snow
7:54 PM 21.6 °F 7.8 °F 18.3 °F 87% 29.72 in 1.8 mi West 16.1 mph 29.9 mph N/A Snow Light Snow
8:15 PM 21.6 °F 6.5 °F 18.0 °F 86% 29.73 in 3.0 mi West 19.6 mph 26.5 mph N/A Snow Light Snow
8:34 PM 21.0 °F 7.1 °F 15.6 °F 80% 29.74 in 2.5 mi WNW 16.1 mph 28.8 mph N/A Snow Light Snow
8:54 PM 21.6 °F 7.3 °F 14.5 °F 74% 29.75 in 7.0 mi WNW 17.3 mph 28.8 mph N/A   Overcast
9:15 PM 21.2 °F 6.8 °F 12.0 °F 68% 29.75 in 7.0 mi West 17.3 mph 29.9 mph N/A   Overcast
9:34 PM 20.8 °F 6.8 °F 11.7 °F 68% 29.76 in 7.0 mi WNW 16.1 mph 32.2 mph N/A   Overcast
9:54 PM 20.1 °F 4.2 °F 10.4 °F 66% 29.77 in 10.0 mi West 20.7 mph 28.8 mph N/A   Overcast
10:15 PM 19.9 °F 3.9 °F 10.2 °F 66% 29.78 in 10.0 mi WNW 20.7 mph 31.1 mph N/A   Overcast
10:34 PM 19.8 °F 3.3 °F 10.0 °F 66% 29.78 in 10.0 mi WNW 21.9 mph 28.8 mph N/A   Overcast
10:54 PM 19.0 °F 4.5 °F 10.6 °F 70% 29.78 in 5.0 mi West 16.1 mph 33.4 mph N/A   Haze
11:13 PM 18.5 °F 2.0 °F 11.1 °F 73% 29.79 in 5.0 mi West 20.7 mph 31.1 mph N/A Snow Light Snow
11:34 PM 18.5 °F 0.9 °F 9.9 °F 69% 29.80 in 4.0 mi West 24.2 mph 34.5 mph N/A Snow Light Snow
11:54 PM 18.3 °F 3.1 °F 8.6 °F 66% 29.80 in 7.0 mi West 17.3 mph 33.4 mph N/A   Overcast